Excel - sacar la fecha minima y la fecha maxima de una tabla de datos

   
Vista:

sacar la fecha minima y la fecha maxima de una tabla de datos

Publicado por alex (1 intervención) el 12/09/2013 23:18:18
buenas tardes necesito por favor sacar la fecha minima y la fecha maxima de una tabla de datos para saber el tiempo laborado del vehiculo, pero me exigen que enuncie la fecha que partio y la fecha de finalizacion la base de datos es la sgte

PLACA FECHA VELOCIDAD (Km/Hr) POSICIÓN
aaa001 01/08/2013 01:04:31 0 PARQUEADERO SOS YOPAL, Yopal
aaa001 01/08/2013 02:12:52 0 PARQUEADERO SOS YOPAL, Yopal
aaa001 01/08/2013 03:21:13 0 PARQUEADERO SOS YOPAL, Yopal
aaa001 01/08/2013 04:29:33 0 PARQUEADERO SOS YOPAL, Yopal
aaa001 01/08/2013 05:37:51 0 PARQUEADERO SOS YOPAL, Yopal
aaa001 01/08/2013 06:39:40 0 PARQUEADERO SOS YOPAL, Yopal AKI TERMINA EL DESCANSO
aaa001 01/08/2013 06:44:39 48,2 La Guafilla, La Guafilla COMIENZA LABOR
aaa001 01/08/2013 06:49:44 25,24 La Guafilla, La Guafilla
aaa001 01/08/2013 06:54:50 39,12 La Guafilla, La Guafilla
aaa001 01/08/2013 06:59:53 24,87 La Guafilla, La Guafilla
aaa001 01/08/2013 07:04:53 49,07 Eds distracom Aguazul, Aguazul
aaa001 01/08/2013 07:09:59 45,34 Eds distracom Aguazul, Aguazul
aaa001 01/08/2013 07:16:28 27,61 Eds distracom Aguazul, Aguazul
aaa001 01/08/2013 07:21:28 54,8 San Jose del Bubuy, San Jose del Bubuy
aaa001 01/08/2013 07:26:38 41,77 San Jose del Bubuy, San Jose del Bubuy
aaa001 01/08/2013 07:31:38 54,48 Desc Ingecoleo, Aguazul
aaa001 01/08/2013 07:36:38 62,58 Desc Ingecoleo, Aguazul
aaa001 01/08/2013 07:41:48 33,87 Desc Ingecoleo, Aguazul
aaa001 01/08/2013 07:46:48 54,18 Desc Ingecoleo, Aguazul
aaa001 01/08/2013 07:51:48 65,6 Bateria Centauro, Bateria Centauro
aaa001 01/08/2013 07:56:58 50,87 Bateria Centauro, Bateria Centauro
aaa001 01/08/2013 08:01:58 46,93 Bateria Centauro, Bateria Centauro
aaa001 01/08/2013 08:06:58 42,53 Bateria Centauro, Bateria Centauro
aaa001 01/08/2013 08:12:10 41,4 Bateria Centauro, Bateria Centauro
aaa001 01/08/2013 08:17:08 26,6 Bateria Centauro, Bateria Centauro
aaa001 01/08/2013 08:22:08 14,74 Bateria Centauro, Bateria Centauro
aaa001 01/08/2013 08:27:19 11,77 Bateria Centauro, Bateria Centauro
aaa001 01/08/2013 08:32:18 34,22 Bateria Centauro, Bateria Centauro
aaa001 01/08/2013 08:37:19 18,76 Bateria Campo Rico, Bateria Campo Rico
aaa001 01/08/2013 08:42:29 19,51 Bateria Campo Rico, Bateria Campo Rico
aaa001 01/08/2013 08:47:29 7,13 Bateria Campo Rico, Bateria Campo Rico TERMINA LABOR
aaa001 01/08/2013 08:52:29 0 Bateria Campo Rico, Bateria Campo Rico
aaa001 01/08/2013 08:57:38 2,48 Bateria Campo Rico, Bateria Campo Rico COMIENZA Y TERMINA
aaa001 01/08/2013 09:54:41 0 Bateria Campo Rico, Bateria Campo Rico
aaa001 01/08/2013 10:11:07 0 Bateria Campo Rico, Bateria Campo Rico
aaa001 01/08/2013 10:16:10 1,64 Bateria Campo Rico, Bateria Campo Rico COMIENZA LABOR
aaa001 01/08/2013 10:21:10 14,16 Bateria Campo Rico, Bateria Campo Rico
aaa001 01/08/2013 10:27:47 8,25 Bateria Centauro, Bateria Centauro
aaa001 01/08/2013 10:32:51 22,48 Bateria Centauro, Bateria Centauro
aaa001 01/08/2013 10:37:51 23,14 Bateria Centauro, Bateria Centauro
aaa001 01/08/2013 10:43:00 23,47 Bateria Centauro, Bateria Centauro
aaa001 01/08/2013 10:48:01 17,23 Bateria Centauro, Bateria Centauro
aaa001 01/08/2013 10:53:01 14,92 Bateria Centauro, Bateria Centauro
aaa001 01/08/2013 10:58:09 13,67 Bateria Centauro, Bateria Centauro
aaa001 01/08/2013 11:03:11 35,2 Bateria Centauro, Bateria Centauro
aaa001 01/08/2013 11:08:11 35,43 Bateria Centauro, Bateria Centauro
aaa001 01/08/2013 11:13:21 36,65 Bateria Centauro, Bateria Centauro
aaa001 01/08/2013 11:18:21 30,38 Bateria Centauro, Bateria Centauro
aaa001 01/08/2013 11:23:21 49,96 Desc Ingecoleo, Aguazul
aaa001 01/08/2013 11:28:31 43,9 Desc Ingecoleo, Aguazul
aaa001 01/08/2013 11:33:31 43,32 Desc Ingecoleo, Aguazul
aaa001 01/08/2013 11:38:31 32,84 Desc Ingecoleo, Aguazul
aaa001 01/08/2013 11:43:41 39,97 Desc Ingecoleo, Aguazul
aaa001 01/08/2013 11:48:41 40,97 San Jose del Bubuy, San Jose del Bubuy TERMINA LABOR
aaa001 01/08/2013 11:52:01 0 San Jose del Bubuy, San Jose del Bubuy
aaa001 01/08/2013 11:52:09 24,25 San Jose del Bubuy, San Jose del Bubuy



ENTONCES ME EXIGEN QUE ENUNCIE LAS HORAS QUE COMENZO Y QUE FINALIZO Y COPIAR Y PEGAR Y RESTAR PARA 500 CARROS DE UN MES ES MUY DEMORADOOOO


GRACIASS
Valora esta pregunta
Me gusta: Está pregunta es útil y esta claraNo me gusta: Está pregunta no esta clara o no es útil
0
Responder